loading
|

TITAN 3C TRANSTAGE DEB, 1915

Orbit data source: Space-Track

TITAN 3C TRANSTAGE DEB, 1915 is space debris in LEO originally from a launch on Fri, 15 Oct 1965 UTC launched from the Air Force Eastern Test Range (AFETR). Debris objects in space refer to the collection of defunct objects orbiting the Earth. Examples of debris include non-operational satellites, rocket bodies, and fragments generated from explosions, collisions, or faulty payload assembly.

Loading next visibility...
Loading greatness...
TITAN 3C TRANSTAGE DEB details
Identifier
1915, 1965-082FZ
Orbit
LEO
Last TLE update16 hours ago
Origin
Flag of USUSAF SSD (US)
ManufacturerUnknown
MissionSpacecraft
Bus & MotorUnknown bus, Unknown motor
MassUnknown
Launch date (UTC)
1965-10-15 (59 years ago)
Launch vehicleUnknown
Launch site
Air Force Eastern Test Range (AFETR)
Object type
Payload
Rocket body
Debris
Shape & HBRUnknown
Radar Cross SectionSmall (<0.1 m²)

Expand to show TLE details & history

TLE from 16 hours ago
0 TITAN 3C TRANSTAGE DEB
1 01915U 65082FZ  24284.36429378  .00002397  00000-0  50752-3 0  9992
2 01915  31.8780 313.9880 0029095 124.8969 235.4409 14.57462102125626
Epoch: 2024-10-10T08:44Z
Definitive object data (Epoch: 2024-10-10T08:44:34.982Z)
Latitude-0.00006°
Longitude163.39225°
Altitude711.731 km
Speed7.496 km/s
True Right ascension20h 55m 57s
True Declination0° 00' 00"
Sunlit
Object was in full shadow at TLE epoch
Predictive object data (real-time)
Latitude11.01862°
Longitude-38.55623°
Altitude681.066 km
Speed7.529 km/s
Apparent Right ascension07h 06m 22s
Apparent Declination-13° 04' 31"
Sunlit
Object is in daylight
Predictive observer data (real-time)
Local Sidereal Time18:35:31
Azimuth343.659° N
Elevation-62.314°
Doppler factor1
Orbital elements
Apogee725.613 km
Perigee684.396 km
Semi-major axis7,083.142 km
Eccentricity0.0029095
Inclination31.878°
RAAN313.988°
Arg. of periapsis124.8969°
True anomaly235.16689°
Mean anomaly235.4409°
Eccentric anomaly235.30384°
Mean motion3.64086 °/min
BSTAR0.00050752
Period98.88 mins
No data available

TITAN 3C TRANSTAGE DEB Visibility forecast

Observer location: 39.9160978°, -105.1181434

TITAN 3C TRANSTAGE DEB is not visible in the next 10 days
Span
Click to sort rows by Start time (UTC) header in descending order
Start Az.
Max El. time (UTC)
Max El. Az.
Max El.
End time (UTC)
End Az.